Location: Ash Swamp
(41.5170°N, 74.6157°W)
Time: 17:01:24
(UTC+00:00)

CENTAUR R/B - Pass Details

Date: 14 July 2020
Orbit: 760 x 1428 km, 63.5° (Epoch: 01 August)

Event Time Altitude Azimuth Distance (km) Brightness Sun altitude
Exits shadow 08:30:22 - 190° (S) 2,726 4.4 -10.9°
Reaches altitude 10° 08:31:05 10° 188° (S) 2,469 4.2 -10.8°
Maximum altitude 08:36:32 47° 115° (ESE) 1,222 3.2 -10.1°
Drops below altitude 10° 08:42:53 10° 44° (NE) 2,885 6.6 -9.2°
Sets 08:45:51 0° 39° (NE) 3,954 7.7 -8.7°
